Location: Noral
(54.6536°N, 112.3633°W)
Time: 11:45:57
(UTC+00:00)

Envisat - Visible Passes

Search period start: 01 December 2021 00:00
Search period end: 11 December 2021 00:00
Orbit: 764 x 766 km, 98.2° (Epoch: 01 December)

Date Brightness Start Highest point End Pass type
(mag) Time Alt. Az. Time Alt. Az. Time Alt. Az.
01 Dec 5.0 00:23:06 10° SSW 00:27:37 32° W 00:32:11 10° NNW visible
01 Dec 3.6 12:23:56 10° NNE 12:28:57 56° E 12:33:56 10° S visible
01 Dec 3.7 14:03:21 10° N 14:07:45 30° WNW 14:12:08 10° WSW visible
01 Dec 3.7 23:45:31 10° S 23:50:32 59° W 23:55:35 10° NNW visible
02 Dec 6.3 01:29:23 10° W 01:30:39 11° W 01:31:55 10° WNW visible
02 Dec 4.8 11:47:22 10° NNE 11:51:50 30° E 11:56:16 10° SSE visible
02 Dec 3.1 13:26:11 10° N 13:31:08 53° WNW 13:36:03 10° SW visible
03 Dec 5.7 00:49:25 10° SW 00:53:13 21° W 00:57:02 10° NW visible
03 Dec 5.7 11:11:22 10° NE 11:14:31 16° E 11:17:38 10° ESE visible
03 Dec 3.0 12:49:12 10° NNE 12:54:19 85° ESE 12:59:25 10° SSW visible
03 Dec 4.2 14:29:01 10° N 14:32:47 21° NW 14:36:33 10° WSW visible
04 Dec 4.6 00:11:15 10° SSW 00:15:58 38° W 00:20:44 10° NNW visible
04 Dec 4.0 12:12:25 10° NNE 12:17:21 46° E 12:22:12 10° S visible
04 Dec 3.5 13:51:40 10° N 13:56:17 35° WNW 14:00:52 10° SW visible
05 Dec 6.0 01:16:27 10° WSW 01:18:54 13° W 01:21:22 10° NW visible
05 Dec 5.1 11:35:59 10° NE 11:40:09 25° E 11:44:19 10° SE visible
05 Dec 2.9 13:14:33 10° N 13:19:36 63° WNW 13:24:37 10° SSW visible
06 Dec 5.4 00:37:22 10° SW 00:41:31 25° W 00:45:42 10° NW visible
06 Dec 5.9 11:00:21 10° NE 11:02:47 13° E 11:05:11 10° ESE visible
06 Dec 3.2 12:37:38 10° NNE 12:42:45 71° ESE 12:47:49 10° S visible
06 Dec 4.0 14:17:17 10° N 14:21:21 25° NW 14:25:25 10° WSW visible
06 Dec 4.2 23:59:27 10° S 00:04:21 46° W 00:09:16 10° NNW visible
07 Dec 4.3 12:00:57 10° NNE 12:05:42 38° E 12:10:25 10° SSE visible
07 Dec 3.3 13:40:01 10° N 13:44:48 42° WNW 13:49:34 10° SW visible
08 Dec 5.9 01:04:00 10° SW 01:07:10 16° W 01:10:20 10° NW visible
08 Dec 5.4 11:24:40 10° NE 11:28:28 21° E 11:32:14 10° SE visible
08 Dec 2.9 13:02:58 10° NNE 13:08:04 76° WNW 13:13:08 10° SSW visible
08 Dec 4.4 14:43:03 10° N 14:46:21 18° NW 14:49:38 10° W visible
09 Dec 5.1 00:25:24 10° SSW 00:29:51 30° W 00:34:20 10° NNW visible
09 Dec 6.1 10:49:51 10° ENE 10:51:01 11° E 10:52:10 10° E visible
09 Dec 3.5 12:26:06 10° NNE 12:31:09 59° E 12:36:10 10° S visible
09 Dec 3.8 14:05:34 10° N 14:09:55 29° WNW 14:14:14 10° WSW visible
09 Dec 3.8 23:47:44 10° S 23:52:44 56° W 23:57:45 10° NNW visible
10 Dec 6.4 01:32:30 10° W 01:32:54 10° W 01:33:19 10° WNW visible
10 Dec 4.7 11:49:30 10° NNE 11:54:03 31° E 11:58:34 10° SSE visible
10 Dec 3.1 13:28:23 10° N 13:33:18 50° WNW 13:38:12 10° SW visible
